Location: Unspecified
(41.1637°N, 24.2901°E)
Time: 21:36:47
(UTC+02:00)

ISS - Pass Details

Date: 14 September 2019
Orbit: 411 x 421 km, 51.6° (Epoch: 19 September)

Event Time Altitude Azimuth Distance (km) Brightness Sun altitude
Exits shadow 03:12:00 13° 65° (ENE) 1,295 -0.5 -30.4°
Drops below altitude 10° 03:12:36 10° 72° (ENE) 1,478 -0.2 -30.3°
Sets 03:15:04 0° 89° (E) 2,352 0.8 -29.9°
